World > North America > United States > Virginia   City of Charlottesville, VA

Charlottesville, Virginia Regional Weather

Lat: 38.04N, Lon: 78.49W
Wx Zone: VAZ037Web Search

Our weather pages are very print friendly and they make great conversation starters.

Feedback


°F Click to change Charlottesville hourly weather to Imperial units.Click to change Charlottesville hourly weather to Metric units. °C
Charlottesville Weather Map
UTC Time: 4/15/2021, 14:37
Your Time:

Charlottesville, VA Regional Weather

Expires:202104151500;;593133
ASUS41 KAKQ 151415
RWRAKQ

REGIONAL WEATHER ROUNDUP
NATIONAL WEATHER SERVICE WAKEFIELD VA
1000 AM EDT THU APR 15 2021

Note: "fair" indicates few or no clouds below 12,000 feet with no
significant weather and/or obstructions to visibility. * = Denotes
station may not report precipitation (e.g., rain,snow,etc.),
thunder or fog.


VAZ020-022-025-037-045-151500-
WEST CENTRAL AND SOUTHWEST VIRGINIA
  
CITY           SKY/WX    TMP DP  RH WIND       PRES   REMARKS
STAUNTON*      CLOUDY    55  43  64 W6        29.83F                  
WAYNESBORO*    FAIR      55  42  63 SW6       29.81F                  
HOT SPRINGS VA CLOUDY    43  40  90 W13G18    29.81F                  
LYNCHBURG      SUNNY     60  43  53 NW9G17    29.82F                  
DANVILLE       CLOUDY    58  46  64 VRB6      29.84S                  
SOUTH BOSTON*  CLOUDY    58  47  66 NW9       29.83S                  
MARTINSVILLE   CLOUDY    55  45  67 NW8       29.87F                  
ROANOKE        PTSUNNY   56  41  57 NW17G23   29.86F                  
BLACKSBURG     MOSUNNY   51  41  67 NW14G26   29.88F                  
DUBLIN*        MOSUNNY   51  41  69 W12G18    29.88F                  
MARION*        MOSUNNY   50  41  70 W15G24    29.90F                  
HILLSVILLE*    SUNNY     47  37  67 NW12      29.84F                  
RICHLANDS*     PTSUNNY   20  10  65 W5        29.90F                  
WISE*          MOSUNNY   45  34  65 NW8G17    29.92F                  
ABINGDON*      MOSUNNY   51  39  64 W7        29.92F                  
$$


SKY/WX - Weather  TMP - Temperature  DP - Dew Point  RH - Relative Humidity
WIND - Wind Direction/Speed PRES - Barometric Pressure VSB - Visibility
WCI - Wind Chill Index E13G22 Wind - East Wind 13 mph/Gusts of 22 mph